Погода в Тайюане

Китай     37°51′14″N   112°33′06″E
темп.,
°C
ветер,
м/с
пор.,
м/с
влажн.,
%
обл.,
%
осадки,
мм/ч
давл.,
гПа
погр.,
м
24 июня, чт
чт2423:00+22с456175 0.3 1011594
02:00+21ссв346591 0.3 1010432
05:00+20ссв2263100 0.0 1009280
08:00+23св2151100 0.0 1009508
11:00+26ю2338100 0.0 1007867
14:00+26ююз3435100 0.0 1006660
17:00+26ссв0134100 0.0 1005502
20:00+25з0136100 0.0 100513
25 июня, пт
пт2523:00+24ю1240100 0.0 100641
02:00+24ююз1141100 0.0 100537
05:00+23ю1241100 0.0 100482
08:00+23ююв1243100 0.0 1005181
11:00+22в1152100 0.3 1006737
14:00+25ю4551100 0.4 10041154
17:00+27ююз444559 0.0 10021189
20:00+24ююз4656100 0.0 1002463
26 июня, сб
сб2623:00+23ююз376097 0.0 1003340
02:00+21ююз3564100 0.0 1002174
05:00+20ю236893 0.0 100398
08:00+24ю225338 0.0 1003391
11:00+30в1236100 0.0 1002979
14:00+35ссз3417100 0.0 9993291
17:00+35сз451677 0.0 9993260
20:00+31ссз36210 0.0 999232
27 июня, вс
вс2723:00+28зсз01280 0.0 100113
02:00+26с22312 0.0 100248
05:00+24св11452 0.0 100319
08:00+27ссв23312 0.0 1004449
11:00+33ссв35210 0.0 10022078
14:00+35св55152 0.0 10003434
17:00+35св65165 0.0 9993161
20:00+31в47290 0.0 1001729
28 июня, пн
пн2823:00+27в47410 0.0 1004510
02:00+24св46530 0.0 1005620
05:00+23св23600 0.0 1006408
08:00+25св23525 0.0 1006697
11:00+30св1136100 0.0 10041335
14:00+34ссв12267 0.0 10012035
17:00+35в231950 0.0 10002793
20:00+30в58349 0.0 1002773